Weather in Shchelyabozh

Russia / Komi Republic     66°17′28″N   56°27′06″E
temp.,
°C
wind,
m/s
gust,
m/s
humid.,
%
clouds,
%
prec.,
mm/h
press.,
hPa
HPBL,
m
14 may, fri
fri1400:00+14wsw59690 0.0 1012104
03:00+12w46740 0.0 101270
06:00+14nw46630 0.0 1013357
09:00+16nw34535 0.0 1013672
12:00+18nw45465 0.0 10131142
15:00+19nnw45455 0.0 10131354
18:00+15nne875550 0.0 1013610
21:00+10ene7868100 0.0 1014511
15 may, sat
sat1500:00+9ene6672100 0.0 1015535
03:00+7ne7876100 0.5 1015527
06:00+6ene7783100 0.0 1016565
09:00+5ene7779100 0.0 1017530
12:00+5ne6669100 0.0 1017526
15:00+4ne6675100 0.8 1018575
18:00+4ene5679100 0.1 1018482
21:00+4ene587883 0.1 1016412
16 may, sun
sun1600:00+4ne4779100 0.0 1016345
03:00+4ne587694 0.0 1016435
06:00+5ne786963 0.0 1016597
09:00+7ene77555 0.0 1015928
12:00+10ene66455 0.0 10161322
15:00+11ene66375 0.0 10161358
18:00+11ene66355 0.0 10151385
21:00+8ne711385 0.0 1016441
17 may, mon
mon1700:00+4ene812445 0.0 1017396
03:00+3ne7115326 0.0 1018387
06:00+4ene8105273 0.0 1018531
09:00+8ene893798 0.0 1018855
12:00+10ene882763 0.0 10181148
15:00+11ene77248 0.0 10181228
18:00+10ne772387 0.0 10191091
21:00+8ne593297 0.0 1020244
18 may, tue
tue1800:00+5ne510425 0.0 1021251
03:00+4ne485263 0.0 1022216
06:00+6ene5649100 0.0 1023378
09:00+9ene44435 0.0 1023733
12:00+11ne2233100 0.0 10231022
15:00+13nne222894 0.0 10231179
18:00+13ene21292 0.0 10231136
21:00+10e334051 0.0 102335